Weather History for Al Udeid, Qatar

Change the Weather History Date:

Sunday, March 10, 2013

  Actual Average Record
Temperature  
Mean Temperature 72 °F -  
Max Temperature 82 °F - - ()
Min Temperature 62 °F - - ()
Cooling Degree Days 7    
Growing Degree Days 22 (Base 50)    
Moisture  
Dew Point 56 °F    
Average Humidity 56    
Maximum Humidity 89    
Minimum Humidity 29    
Precipitation  
Precipitation 0.00 in - - ()
Sea Level Pressure  
Sea Level Pressure 29.84 in    
Wind  
Wind Speed 8 mph ()    
Max Wind Speed 18 mph    
Max Gust Speed -    
Visibility 6.2 miles    
Events Rain    
T = Trace of Precipitation, MM = Missing Value Source: Averaged Metar Reports

Daily Weather History Graph

Daily Weather History Graph

Search for Another Location

Airport:

Trip Planner

Search our weather history database for the weather conditions in past years. The results will help you decide how hot, cold, wet, or windy it might be!

Date:

Astronomy

Mar. 10, 2013 Rise Set
Actual Time 5:49 AM AST 5:41 PM AST
Civil Twilight 5:26 AM AST 6:04 PM AST
Nautical Twilight 4:59 AM AST 6:30 PM AST
Astronomical Twilight 4:33 AM AST 6:57 PM AST
Moon 4:28 AM AST (3/10) 4:26 PM AST (3/10)
Length of Visible Light 12h 37m
Length of Day
11h 52m
Waning Crescent, 3% of the Moon is Illuminated
Mar 10
Waning Crescent
Mar 11
New
Mar 19
First Quarter
Mar 27
Full
Apr 3
Last Quarter

Hourly Weather History & Observations

Time (AST) Temp. Dew Point Humidity Pressure Visibility Wind Dir Wind Speed Gust Speed Precip Events Conditions
12:55 AM 64.2 °F 57.7 °F 79% 29.90 in 6.2 mi ESE 4.6 mph - N/A   Clear
1:55 AM 64.4 °F 57.4 °F 78% 29.88 in 6.2 mi ESE 5.8 mph - N/A   Clear
2:55 AM 62.1 °F 56.3 °F 81% 29.88 in 6.2 mi East 3.5 mph - N/A   Clear
3:55 AM 63.3 °F 57.6 °F 81% 29.88 in 6.2 mi Calm Calm - N/A   Clear
4:55 AM 64.0 °F 59.9 °F 86% 29.90 in 6.2 mi Calm Calm - N/A   Clear
5:55 AM 63.7 °F 59.7 °F 87% 29.91 in 6.2 mi Calm Calm - N/A   Clear
6:55 AM 66.0 °F 62.6 °F 89% 29.89 in 6.2 mi ESE 10.4 mph - N/A   Clear
7:55 AM 69.1 °F 64.0 °F 84% 29.91 in 6.2 mi ESE 10.4 mph - N/A   Clear
8:55 AM 73.2 °F 63.3 °F 71% 29.92 in 6.2 mi SE 12.7 mph - N/A   Partly Cloudy
9:55 AM 77.9 °F 53.2 °F 42% 29.93 in 6.2 mi SE 13.8 mph - N/A   Clear
10:55 AM 79.9 °F 52.3 °F 38% 29.89 in 6.2 mi SE 16.1 mph - N/A   Scattered Clouds
11:55 AM 79.2 °F 51.8 °F 38% 29.86 in 6.2 mi SE 18.4 mph - N/A   Partly Cloudy
12:55 PM 80.8 °F 51.6 °F 36% 29.83 in 6.2 mi SE 18.4 mph - N/A   Scattered Clouds
1:55 PM 82.6 °F 47.7 °F 29% 29.80 in 6.2 mi SE 17.3 mph - N/A   Partly Cloudy
2:55 PM 81.9 °F 47.7 °F 30% 29.78 in 6.2 mi SE 12.7 mph - N/A   Clear
3:55 PM 79.9 °F 48.6 °F 33% 29.78 in 6.2 mi SE 15.0 mph - N/A   Clear
4:53 PM 78.8 °F 51.8 °F 39% 29.78 in 6.2 mi ESE 10.4 mph - N/A   Light Drizzle
4:55 PM 78.8 °F 51.8 °F 39% 29.78 in 6.2 mi ESE 9.2 mph - 0.00 in Rain Light Rain
5:04 PM 78.8 °F 50.0 °F 36% 29.78 in 6.2 mi ESE 9.2 mph - N/A   Clear
5:55 PM 76.1 °F 55.4 °F 49% 29.78 in 6.2 mi ESE 12.7 mph - 0.00 in   Clear
6:55 PM 74.7 °F 57.2 °F 54% 29.78 in 6.2 mi ESE 13.8 mph - N/A   Clear
7:55 PM 75.0 °F 55.6 °F 51% 29.83 in 6.2 mi East 9.2 mph - N/A   Clear
8:30 PM 75.2 °F 57.2 °F 53% 29.82 in 6.2 mi NNE 5.8 mph - N/A Rain Light Rain
8:39 PM 75.2 °F 57.2 °F 53% 29.82 in 6.2 mi NE 10.4 mph - N/A   Clear
8:55 PM 74.5 °F 57.0 °F 54% 29.82 in 6.2 mi SE 17.3 mph - 0.00 in   Clear
9:55 PM 74.5 °F 58.3 °F 57% 29.79 in 6.2 mi ESE 13.8 mph - N/A   Clear
10:55 PM 74.3 °F 58.5 °F 58% 29.78 in 6.2 mi SE 13.8 mph - N/A   Clear
11:55 PM 74.3 °F 55.4 °F 52% 29.79 in 6.2 mi SE 8.1 mph - N/A   Clear